EW7343 Weather Reports


time (UTC)temp
C
wind
direction
speed
KPH
gust
KPH
rain 1hr
cm
rain 24hr
cm
rain mn
cm
humidity
%
barometer
mb
20260505014932 17 310 3.2 12.9 0.00 0.00 0.00 46 1007.2
20260505014430 17 222 3.2 9.7 0.00 0.00 0.00 45 1007.0
20260505013930 17 218 3.2 9.7 0.00 0.00 0.00 46 1007.0
20260505013430 17 189 3.2 11.3 0.00 0.00 0.00 45 1007.0
20260505012929 17 169 3.2 14.5 0.00 0.00 0.00 44 1006.9
20260505012429 17 219 3.2 14.5 0.00 0.00 0.00 43 1006.8
20260505011931 16 62 3.2 9.7 0.00 0.00 0.00 44 1006.7
20260505011653 16 221 1.6 9.7 0.00 0.00 0.00 45 1006.7
20260505010930 15 230 0.0 3.2 0.00 0.00 0.00 49 1006.6
20260505010430 15 0 0.0 4.8 0.00 0.00 0.00 48 1006.4
20260505010150 15 0 0.0 4.8 0.00 0.00 0.00 48 1006.3
20260505005431 15 0 0.0 0.0 0.00 0.00 0.00 49 1006.2
20260505004931 15 0 0.0 0.0 0.00 0.00 0.00 47 1006.1
20260505004431 16 0 0.0 0.0 0.00 0.00 0.00 47 1006.1
20260505004151 16 0 0.0 0.0 0.00 0.00 0.00 49 1006.0
20260505003430 16 0 0.0 0.0 0.00 0.00 0.00 47 1005.9
20260505002930 16 0 0.0 0.0 0.00 0.00 0.00 46 1005.8
20260505002429 17 0 0.0 0.0 0.00 0.00 0.00 44 1005.7
20260505002412 17 0 0.0 3.2 0.00 0.00 0.00 43 1005.6
20260505001430 17 0 0.0 3.2 0.00 0.00 0.00 42 1005.5
20260505000930 17 0 0.0 3.2 0.00 0.00 0.00 40 1005.4
20260505000430 18 0 0.0 3.2 0.00 0.00 0.00 40 1005.3
20260504235930 18 0 0.0 3.2 0.00 0.00 0.00 39 1005.3
20260504235431 18 0 0.0 1.6 0.00 0.00 0.00 38 1005.2
20260504235408 19 0 0.0 3.2 0.00 0.00 0.00 35 1005.1
20260504234429 19 0 0.0 4.8 0.00 0.00 0.00 36 1005.1
20260504233930 20 0 1.6 4.8 0.00 0.00 0.00 35 1005.1
20260504233914 20 351 1.6 6.4 0.00 0.00 0.00 35 1005.1
20260504232930 20 0 1.6 6.4 0.00 0.00 0.00 34 1005.0
20260504232430 20 216 1.6 6.4 0.00 0.00 0.00 34 1005.0
20260504231930 20 315 1.6 4.8 0.00 0.00 0.00 33 1004.9
20260504231430 20 0 1.6 6.4 0.00 0.00 0.00 32 1004.8
20260504230943 21 0 1.6 6.4 0.00 0.00 0.00 33 1004.7
20260504230430 21 177 1.6 6.4 0.00 0.00 0.00 32 1004.7
20260504225930 21 202 3.2 14.5 0.00 0.00 0.00 31 1004.6
20260504225430 21 229 4.8 14.5 0.00 0.00 0.00 31 1004.5
20260504225148 21 313 3.2 14.5 0.00 0.00 0.00 31 1004.5
20260504224653 21 0 3.2 12.9 0.00 0.00 0.00 31 1004.5
20260504223930 21 315 4.8 20.9 0.00 0.00 0.00 30 1004.4
20260504223911 21 161 4.8 20.9 0.00 0.00 0.00 30 1004.4
20260504222930 21 211 3.2 12.9 0.00 0.00 0.00 30 1004.3
20260504222431 21 190 3.2 12.9 0.00 0.00 0.00 31 1004.3
20260504221930 21 304 3.2 14.5 0.00 0.00 0.00 31 1004.4
20260504221430 21 309 4.8 14.5 0.00 0.00 0.00 30 1004.3
20260504220930 21 234 6.4 24.1 0.00 0.00 0.00 30 1004.3
20260504220429 21 285 4.8 24.1 0.00 0.00 0.00 30 1004.3
20260504220413 22 295 3.2 14.5 0.00 0.00 0.00 30 1004.4
20260504215430 22 65 4.8 14.5 0.00 0.00 0.00 30 1004.4
20260504214930 22 276 4.8 14.5 0.00 0.00 0.00 29 1004.3
20260504214430 22 344 4.8 14.5 0.00 0.00 0.00 30 1004.3
20260504213929 22 207 6.4 17.7 0.00 0.00 0.00 29 1004.2
20260504213429 22 172 4.8 17.7 0.00 0.00 0.00 30 1004.2
20260504213406 21 160 6.4 29.0 0.00 0.00 0.00 30 1004.1
20260504212430 21 201 6.4 29.0 0.00 0.00 0.00 31 1004.2
20260504211930 21 198 4.8 16.1 0.00 0.00 0.00 30 1004.3
20260504211430 21 161 4.8 12.9 0.00 0.00 0.00 31 1004.4
20260504210931 22 154 6.4 14.5 0.00 0.00 0.00 30 1004.3
20260504210430 22 15 6.4 14.5 0.00 0.00 0.00 30 1004.3
20260504205930 22 279 6.4 22.5 0.00 0.00 0.00 30 1004.2
20260504205430 22 51 9.7 24.1 0.00 0.00 0.00 30 1004.2
20260504204931 22 317 8.0 24.1 0.00 0.00 0.00 29 1004.2
20260504204430 22 0 6.4 19.3 0.00 0.00 0.00 30 1004.2
20260504203930 22 325 6.4 17.7 0.00 0.00 0.00 30 1004.3
20260504203430 21 280 6.4 17.7 0.00 0.00 0.00 29 1004.3
20260504203406 21 341 4.8 12.9 0.00 0.00 0.00 31 1004.3
20260504202430 21 53 4.8 22.5 0.00 0.00 0.00 31 1004.3
20260504201930 21 303 6.4 22.5 0.00 0.00 0.00 29 1004.3
20260504201430 21 147 4.8 16.1 0.00 0.00 0.00 30 1004.3
20260504201152 21 317 4.8 14.5 0.00 0.00 0.00 30 1004.3
20260504200429 21 332 4.8 12.9 0.00 0.00 0.00 31 1004.3
20260504195930 21 276 6.4 16.1 0.00 0.00 0.00 31 1004.4
20260504195431 21 221 6.4 16.1 0.00 0.00 0.00 30 1004.4
20260504194929 21 348 4.8 12.9 0.00 0.00 0.00 31 1004.4
20260504194430 21 192 4.8 14.5 0.00 0.00 0.00 31 1004.4
20260504193929 21 321 4.8 14.5 0.00 0.00 0.00 30 1004.4
20260504193431 21 181 4.8 14.5 0.00 0.00 0.00 30 1004.4
20260504193155 21 199 6.4 17.7 0.00 0.00 0.00 29 1004.4
20260504192653 21 310 6.4 20.9 0.00 0.00 0.00 30 1004.5
20260504191929 21 170 6.4 20.9 0.00 0.00 0.00 29 1004.4
20260504191428 21 176 6.4 20.9 0.00 0.00 0.00 29 1004.4
20260504190929 21 334 6.4 20.9 0.00 0.00 0.00 29 1004.5
20260504190429 21 244 6.4 17.7 0.00 0.00 0.00 30 1004.5
20260504185927 21 167 6.4 17.7 0.00 0.00 0.00 29 1004.6
20260504185426 21 260 6.4 14.5 0.00 0.00 0.00 29 1004.6
20260504184927 21 248 6.4 16.1 0.00 0.00 0.00 30 1004.6
20260504184427 21 267 6.4 19.3 0.00 0.00 0.00 30 1004.7
20260504183927 21 290 6.4 19.3 0.00 0.00 0.00 30 1004.7
20260504183426 20 157 6.4 16.1 0.00 0.00 0.00 30 1004.7
20260504183406 20 243 8.0 17.7 0.00 0.00 0.00 30 1004.7
20260504182427 20 293 6.4 17.7 0.00 0.00 0.00 29 1004.6
20260504181927 21 321 4.8 17.7 0.00 0.00 0.00 29 1004.6
20260504181427 21 268 6.4 20.9 0.00 0.00 0.00 30 1004.8
20260504180926 21 211 8.0 20.9 0.00 0.00 0.00 30 1004.8
20260504180426 21 185 6.4 19.3 0.00 0.00 0.00 31 1004.6
20260504175927 21 164 8.0 19.3 0.00 0.00 0.00 30 1004.7
20260504175427 21 336 6.4 16.1 0.00 0.00 0.00 30 1004.8
20260504174927 21 211 6.4 16.1 0.00 0.00 0.00 30 1004.8
20260504174428 21 191 6.4 19.3 0.00 0.00 0.00 31 1004.8
20260504173928 21 161 8.0 22.5 0.00 0.00 0.00 30 1004.8
20260504173427 21 277 8.0 27.4 0.00 0.00 0.00 30 1004.9
20260504172924 20 166 8.0 27.4 0.00 0.00 0.00 32 1004.9
20260504172425 21 342 8.0 25.7 0.00 0.00 0.00 30 1005.0
20260504171925 20 157 8.0 25.7 0.00 0.00 0.00 32 1005.0
20260504171424 20 265 8.0 22.5 0.00 0.00 0.00 32 1005.0
20260504170924 20 187 8.0 22.5 0.00 0.00 0.00 32 1005.0
20260504170425 20 175 8.0 22.5 0.00 0.00 0.00 31 1005.1
20260504160420 19 285 6.4 16.1 0.00 0.00 0.00 35 1005.6
20260504150915 17 8 6.4 16.1 0.00 0.00 0.00 38 1006.2
20260504150415 17 258 6.4 14.5 0.00 0.00 0.00 37 1006.4
20260504140913 16 295 4.8 19.3 0.00 0.00 0.00 43 1007.2
20260504140849 16 333 4.8 22.5 0.00 0.00 0.00 43 1007.2
20260504140135 15 346 6.4 22.5 0.00 0.00 0.00 44 1007.3
20260504130408 12 225 3.2 11.3 0.00 0.00 0.00 50 1008.0
20260504130130 12 155 3.2 11.3 0.00 0.00 0.00 50 1008.0
20260504110402 6 325 3.2 6.4 0.00 0.00 0.00 74 1009.0
20260504110123 6 325 1.6 3.2 0.00 0.00 0.00 76 1009.0
20260504100402 5 337 1.6 3.2 0.00 0.00 0.00 77 1008.8
20260504090120 6 327 1.6 3.2 0.00 0.00 0.00 72 1008.8
20260504081402 5 143 3.2 8.0 0.00 0.00 0.00 71 1008.8
20260504080902 5 324 3.2 8.0 0.00 0.00 0.00 72 1008.7
20260504080401 5 320 3.2 6.4 0.00 0.00 0.00 71 1008.8
20260504070355 4 319 3.2 6.4 0.00 0.00 0.00 76 1008.6
20260504050348 1 185 3.2 6.4 0.00 0.00 0.00 82 1008.7
20260504045849 1 339 1.6 3.2 0.00 0.00 0.00 84 1008.7
20260504045346 1 306 1.6 3.2 0.00 0.00 0.00 84 1008.7
20260504044842 2 269 1.6 3.2 0.00 0.00 0.00 84 1008.7
20260504044340 2 329 3.2 4.8 0.00 0.00 0.00 84 1008.7
20260504043841 2 263 3.2 4.8 0.00 0.00 0.00 84 1008.7
20260504043608 2 328 3.2 4.8 0.00 0.00 0.00 83 1008.7
20260504042841 2 329 3.2 4.8 0.00 0.00 0.00 83 1008.7
20260504042341 2 325 3.2 4.8 0.00 0.00 0.00 83 1008.7
20260504041841 2 197 3.2 4.8 0.00 0.00 0.00 81 1008.7
20260504041341 2 268 3.2 6.4 0.00 0.00 0.00 82 1008.7
20260504040841 2 253 3.2 6.4 0.00 0.00 0.00 78 1008.6
20260504040341 2 199 3.2 4.8 0.00 0.00 0.00 80 1008.6
20260504035841 3 271 3.2 4.8 0.00 0.00 0.00 80 1008.6
20260504035341 3 229 4.8 6.4 0.00 0.00 0.00 79 1008.5
20260504034838 3 335 4.8 6.4 0.00 0.00 0.00 78 1008.5
20260504034338 3 69 4.8 6.4 0.00 0.00 0.00 79 1008.5
20260504033838 3 358 4.8 6.4 0.00 0.00 0.00 78 1008.5
20260504033337 2 352 3.2 6.4 0.00 0.00 0.00 80 1008.5
20260504033101 2 337 3.2 6.4 0.00 0.00 0.00 82 1008.4
20260504032338 3 324 3.2 6.4 0.00 0.00 0.00 83 1008.3
20260504031838 3 270 3.2 6.4 0.00 0.00 0.00 81 1008.3
20260504031338 3 273 3.2 4.8 0.00 0.00 0.00 79 1008.3
20260504030838 3 310 3.2 6.4 0.00 0.00 0.00 78 1008.2
20260504030338 3 324 3.2 6.4 0.00 0.00 0.00 80 1008.3
20260504025838 3 336 3.2 6.4 0.00 0.00 0.00 81 1008.3
20260504025339 3 279 3.2 6.4 0.00 0.00 0.00 80 1008.3
20260504024839 3 253 3.2 4.8 0.00 0.00 0.00 79 1008.3
20260504024335 3 314 3.2 6.4 0.00 0.00 0.00 78 1008.2
20260504023835 3 315 3.2 6.4 0.00 0.00 0.00 78 1008.3
20260504023336 3 291 4.8 6.4 0.00 0.00 0.00 76 1008.3
20260504022836 3 305 4.8 6.4 0.00 0.00 0.00 78 1008.3
20260504022336 3 324 4.8 6.4 0.00 0.00 0.00 78 1008.2
20260504021836 3 324 3.2 6.4 0.00 0.00 0.00 78 1008.2
20260504021823 3 330 3.2 9.7 0.00 0.00 0.00 77 1008.2
20260504020836 3 334 4.8 9.7 0.00 0.00 0.00 78 1008.2
20260504020337 3 320 3.2 6.4 0.00 0.00 0.00 76 1008.2
20260504020057 4 187 4.8 6.4 0.00 0.00 0.00 75 1008.2
20260504015558 4 329 4.8 6.4 0.00 0.00 0.00 74 1008.1